Time,TemperatureF,DewpointF,PressureIn,WindDirection,WindDirectionDegrees,WindSpeedMPH,WindSpeedGustMPH,Humidity,HourlyPrecipIn,Conditions,Clouds,dailyrainin,SoftwareType,DateUTC
2013-08-29 00:01:00,73.9,65.5,29.94,North,-999,0.0,0.0,75,0.00,,,-99.99,FreeWX 2.04,2013-08-29 04:01:00,
2013-08-29 00:11:00,73.9,65.5,29.94,North,-999,0.0,0.0,75,0.00,,,-99.99,FreeWX 2.04,2013-08-29 04:11:00,
2013-08-29 00:21:00,73.8,65.3,29.94,North,-999,0.0,0.0,75,0.00,,,-99.99,FreeWX 2.04,2013-08-29 04:21:00,
2013-08-29 00:31:00,73.6,65.1,29.94,North,-999,0.0,0.0,75,0.00,,,-99.99,FreeWX 2.04,2013-08-29 04:31:00,
2013-08-29 00:41:00,73.6,65.1,29.94,North,-999,0.0,0.0,75,0.00,,,-99.99,FreeWX 2.04,2013-08-29 04:41:00,
2013-08-29 00:51:00,73.4,64.9,29.94,North,-999,0.0,0.0,75,0.00,,,-99.99,FreeWX 2.04,2013-08-29 04:51:00,
2013-08-29 01:01:00,73.2,64.4,29.94,North,-999,0.0,0.0,74,0.00,,,-99.99,FreeWX 2.04,2013-08-29 05:01:00,
2013-08-29 01:11:00,73.0,64.2,29.94,North,-999,0.0,0.0,74,0.00,,,-99.99,FreeWX 2.04,2013-08-29 05:11:00,
2013-08-29 01:21:00,73.0,64.2,29.94,North,-999,0.0,0.0,74,0.00,,,-99.99,FreeWX 2.04,2013-08-29 05:21:00,
2013-08-29 01:31:00,73.0,64.2,29.94,North,-999,0.0,0.0,74,0.00,,,-99.99,FreeWX 2.04,2013-08-29 05:31:00,
2013-08-29 01:41:00,72.9,64.0,29.94,North,-999,0.0,0.0,74,0.00,,,-99.99,FreeWX 2.04,2013-08-29 05:41:00,
2013-08-29 01:51:00,72.7,63.9,29.94,North,-999,0.0,0.0,74,0.00,,,-99.99,FreeWX 2.04,2013-08-29 05:51:00,
2013-08-29 02:01:00,72.7,63.9,29.94,North,-999,0.0,0.0,74,0.00,,,-99.99,FreeWX 2.04,2013-08-29 06:01:00,
2013-08-29 02:11:00,72.7,64.2,29.94,North,-999,0.0,0.0,75,0.00,,,-99.99,FreeWX 2.04,2013-08-29 06:11:00,
2013-08-29 02:21:00,72.9,64.4,29.94,North,-999,0.0,0.0,75,0.00,,,-99.99,FreeWX 2.04,2013-08-29 06:21:00,
2013-08-29 02:31:00,72.7,64.2,29.94,North,-999,0.0,0.0,75,0.00,,,-99.99,FreeWX 2.04,2013-08-29 06:31:00,
2013-08-29 02:41:00,72.9,64.4,29.94,North,-999,0.0,0.0,75,0.00,,,-99.99,FreeWX 2.04,2013-08-29 06:41:00,
2013-08-29 02:51:00,72.9,64.4,29.94,North,-999,0.0,0.0,75,0.00,,,-99.99,FreeWX 2.04,2013-08-29 06:51:00,
2013-08-29 03:01:00,72.9,64.4,29.94,North,-999,0.0,0.0,75,0.00,,,-99.99,FreeWX 2.04,2013-08-29 07:01:00,
2013-08-29 03:11:00,72.7,64.2,29.94,North,-999,0.0,0.0,75,0.00,,,-99.99,FreeWX 2.04,2013-08-29 07:11:00,
2013-08-29 03:21:00,72.9,64.4,29.94,North,-999,0.0,0.0,75,0.00,,,-99.99,FreeWX 2.04,2013-08-29 07:21:00,
2013-08-29 03:31:00,72.9,64.8,29.94,North,-999,0.0,0.0,76,0.00,,,-99.99,FreeWX 2.04,2013-08-29 07:31:00,
2013-08-29 03:41:00,73.0,64.9,29.94,North,-999,0.0,0.0,76,0.00,,,-99.99,FreeWX 2.04,2013-08-29 07:41:00,
2013-08-29 03:51:00,73.0,65.3,29.94,North,-999,0.0,0.0,77,0.00,,,-99.99,FreeWX 2.04,2013-08-29 07:51:00,
2013-08-29 04:01:00,73.0,65.8,29.94,North,-999,0.0,0.0,78,0.00,,,-99.99,FreeWX 2.04,2013-08-29 08:01:00,
2013-08-29 04:11:00,73.0,65.8,29.94,North,-999,0.0,0.0,78,0.00,,,-99.99,FreeWX 2.04,2013-08-29 08:11:00,
2013-08-29 04:21:00,73.0,65.8,29.94,North,-999,0.0,0.0,78,0.00,,,-99.99,FreeWX 2.04,2013-08-29 08:21:00,
2013-08-29 04:31:00,72.9,65.7,29.94,North,-999,0.0,0.0,78,0.00,,,-99.99,FreeWX 2.04,2013-08-29 08:31:00,
2013-08-29 04:41:00,72.7,65.5,29.94,North,-999,0.0,0.0,78,0.00,,,-99.99,FreeWX 2.04,2013-08-29 08:41:00,
2013-08-29 04:51:00,72.7,65.5,29.94,North,-999,0.0,0.0,78,0.00,,,-99.99,FreeWX 2.04,2013-08-29 08:51:00,
2013-08-29 05:01:00,72.7,65.5,29.94,North,-999,0.0,0.0,78,0.00,,,-99.99,FreeWX 2.04,2013-08-29 09:01:00,
2013-08-29 05:11:00,72.7,65.5,29.94,North,-999,0.0,0.0,78,0.00,,,-99.99,FreeWX 2.04,2013-08-29 09:11:00,
2013-08-29 05:21:00,72.7,65.5,29.97,North,-999,0.0,0.0,78,0.00,,,-99.99,FreeWX 2.04,2013-08-29 09:21:00,
2013-08-29 05:31:00,72.5,65.3,29.97,North,-999,0.0,0.0,78,0.00,,,-99.99,FreeWX 2.04,2013-08-29 09:31:00,
2013-08-29 05:41:00,72.5,65.7,29.97,North,-999,0.0,0.0,79,0.00,,,-99.99,FreeWX 2.04,2013-08-29 09:41:00,
2013-08-29 05:51:00,72.3,65.5,29.97,North,-999,0.0,0.0,79,0.00,,,-99.99,FreeWX 2.04,2013-08-29 09:51:00,
2013-08-29 06:01:00,72.1,65.3,29.97,North,-999,0.0,0.0,79,0.00,,,-99.99,FreeWX 2.04,2013-08-29 10:01:00,
2013-08-29 06:11:00,72.0,65.1,29.97,North,-999,0.0,0.0,79,0.00,,,-99.99,FreeWX 2.04,2013-08-29 10:11:00,
2013-08-29 06:21:00,71.8,64.9,29.97,North,-999,0.0,0.0,79,0.00,,,-99.99,FreeWX 2.04,2013-08-29 10:21:00,
2013-08-29 06:31:00,71.4,64.2,29.97,North,-999,0.0,0.0,78,0.00,,,-99.99,FreeWX 2.04,2013-08-29 10:31:00,
2013-08-29 06:41:00,71.4,64.2,29.97,North,-999,0.0,0.0,78,0.00,,,-99.99,FreeWX 2.04,2013-08-29 10:41:00,
2013-08-29 06:51:00,71.6,64.8,29.97,North,-999,0.0,0.0,79,0.00,,,-99.99,FreeWX 2.04,2013-08-29 10:51:00,
2013-08-29 07:01:00,71.6,64.8,29.97,North,-999,0.0,0.0,79,0.00,,,-99.99,FreeWX 2.04,2013-08-29 11:01:00,
2013-08-29 07:11:00,71.6,64.8,29.97,North,-999,0.0,0.0,79,0.00,,,-99.99,FreeWX 2.04,2013-08-29 11:11:00,
2013-08-29 07:21:00,71.8,64.9,30.00,North,-999,0.0,0.0,79,0.00,,,-99.99,FreeWX 2.04,2013-08-29 11:21:00,
2013-08-29 07:31:00,71.6,64.8,30.00,North,-999,0.0,0.0,79,0.00,,,-99.99,FreeWX 2.04,2013-08-29 11:31:00,
2013-08-29 07:41:00,71.4,64.6,30.00,North,-999,0.0,0.0,79,0.00,,,-99.99,FreeWX 2.04,2013-08-29 11:41:00,
2013-08-29 07:51:00,71.4,64.6,30.00,North,-999,0.0,0.0,79,0.00,,,-99.99,FreeWX 2.04,2013-08-29 11:51:00,
2013-08-29 08:01:00,71.6,64.8,30.00,North,-999,0.0,0.0,79,0.00,,,-99.99,FreeWX 2.04,2013-08-29 12:01:00,
2013-08-29 08:11:00,71.8,64.9,30.00,North,-999,0.0,0.0,79,0.00,,,-99.99,FreeWX 2.04,2013-08-29 12:11:00,
2013-08-29 08:21:00,72.0,65.5,30.00,North,-999,0.0,0.0,80,0.00,,,-99.99,FreeWX 2.04,2013-08-29 12:21:00,
2013-08-29 08:31:00,72.0,65.1,30.00,North,-999,0.0,0.0,79,0.00,,,-99.99,FreeWX 2.04,2013-08-29 12:31:00,
2013-08-29 08:41:00,72.0,65.1,30.00,North,-999,0.0,0.0,79,0.00,,,-99.99,FreeWX 2.04,2013-08-29 12:41:00,
2013-08-29 08:51:00,72.0,65.1,30.00,North,-999,0.0,0.0,79,0.00,,,-99.99,FreeWX 2.04,2013-08-29 12:51:00,
2013-08-29 09:01:00,72.0,65.1,30.00,North,-999,0.0,0.0,79,0.00,,,-99.99,FreeWX 2.04,2013-08-29 13:01:00,
2013-08-29 09:11:00,72.0,65.1,30.03,North,-999,0.0,0.0,79,0.00,,,-99.99,FreeWX 2.04,2013-08-29 13:11:00,
2013-08-29 09:21:00,72.1,65.3,30.00,North,-999,0.0,0.0,79,0.00,,,-99.99,FreeWX 2.04,2013-08-29 13:21:00,
2013-08-29 09:31:00,72.1,65.3,30.00,North,-999,0.0,0.0,79,0.00,,,-99.99,FreeWX 2.04,2013-08-29 13:31:00,
2013-08-29 09:41:00,72.1,65.3,30.03,North,-999,0.0,0.0,79,0.00,,,-99.99,FreeWX 2.04,2013-08-29 13:41:00,
2013-08-29 09:51:00,72.1,65.3,30.03,North,-999,0.0,0.0,79,0.00,,,-99.99,FreeWX 2.04,2013-08-29 13:51:00,
2013-08-29 10:01:00,72.1,65.3,30.03,North,-999,0.0,0.0,79,0.00,,,-99.99,FreeWX 2.04,2013-08-29 14:01:00,
2013-08-29 10:11:00,72.3,65.5,30.03,North,-999,0.0,0.0,79,0.00,,,-99.99,FreeWX 2.04,2013-08-29 14:11:00,
2013-08-29 10:21:00,72.5,65.7,30.03,North,-999,0.0,0.0,79,0.00,,,-99.99,FreeWX 2.04,2013-08-29 14:21:00,
2013-08-29 10:31:00,72.7,65.8,30.03,North,-999,0.0,0.0,79,0.00,,,-99.99,FreeWX 2.04,2013-08-29 14:31:00,
2013-08-29 10:41:00,72.7,65.5,30.03,North,-999,0.0,0.0,78,0.00,,,-99.99,FreeWX 2.04,2013-08-29 14:41:00,
2013-08-29 10:51:00,72.9,65.7,30.03,North,-999,0.0,0.0,78,0.00,,,-99.99,FreeWX 2.04,2013-08-29 14:51:00,
2013-08-29 11:01:00,73.0,65.8,30.03,North,-999,0.0,0.0,78,0.00,,,-99.99,FreeWX 2.04,2013-08-29 15:01:00,
2013-08-29 11:11:00,73.0,65.8,30.03,North,-999,0.0,0.0,78,0.00,,,-99.99,FreeWX 2.04,2013-08-29 15:11:00,
2013-08-29 11:21:00,72.9,65.3,30.03,North,-999,0.0,0.0,77,0.00,,,-99.99,FreeWX 2.04,2013-08-29 15:21:00,
2013-08-29 11:31:00,72.7,64.6,30.03,North,-999,0.0,0.0,76,0.00,,,-99.99,FreeWX 2.04,2013-08-29 15:31:00,
2013-08-29 11:41:00,73.0,65.3,30.03,North,-999,0.0,0.0,77,0.00,,,-99.99,FreeWX 2.04,2013-08-29 15:41:00,
2013-08-29 11:51:00,73.8,65.7,30.03,North,-999,0.0,0.0,76,0.00,,,-99.99,FreeWX 2.04,2013-08-29 15:51:00,
2013-08-29 12:01:00,74.3,65.8,30.03,North,-999,0.0,0.0,75,0.00,,,-99.99,FreeWX 2.04,2013-08-29 16:01:00,
2013-08-29 12:11:00,74.7,65.5,30.03,North,-999,0.0,0.0,73,0.00,,,-99.99,FreeWX 2.04,2013-08-29 16:11:00,
2013-08-29 12:21:00,74.5,64.4,30.03,North,-999,0.0,0.0,71,0.00,,,-99.99,FreeWX 2.04,2013-08-29 16:21:00,
2013-08-29 12:31:00,74.3,64.8,30.03,North,-999,0.0,0.0,72,0.00,,,-99.99,FreeWX 2.04,2013-08-29 16:31:00,
2013-08-29 12:41:00,74.5,64.8,30.03,North,-999,0.0,0.0,72,0.00,,,-99.99,FreeWX 2.04,2013-08-29 16:41:00,
2013-08-29 12:51:00,75.0,64.9,30.03,North,-999,0.0,0.0,71,0.00,,,-99.99,FreeWX 2.04,2013-08-29 16:51:00,
2013-08-29 13:02:00,75.7,65.3,30.03,North,-999,0.0,0.0,70,0.00,,,-99.99,FreeWX 2.04,2013-08-29 17:02:00,
2013-08-29 13:12:00,76.1,64.8,30.03,North,-999,0.0,0.0,68,0.00,,,-99.99,FreeWX 2.04,2013-08-29 17:12:00,
2013-08-29 13:22:00,76.1,63.9,30.03,North,-999,0.0,0.0,66,0.00,,,-99.99,FreeWX 2.04,2013-08-29 17:22:00,
2013-08-29 13:32:00,76.1,63.5,30.03,North,-999,0.0,0.0,65,0.00,,,-99.99,FreeWX 2.04,2013-08-29 17:32:00,
2013-08-29 13:42:00,76.8,63.3,30.03,North,-999,0.0,0.0,63,0.00,,,-99.99,FreeWX 2.04,2013-08-29 17:42:00,
2013-08-29 13:52:00,78.3,62.8,30.03,North,-999,0.0,0.0,59,0.00,,,-99.99,FreeWX 2.04,2013-08-29 17:52:00,
2013-08-29 14:02:00,77.2,59.7,30.03,North,-999,0.0,0.0,55,0.00,,,-99.99,FreeWX 2.04,2013-08-29 18:02:00,
2013-08-29 14:12:00,78.4,63.0,30.03,North,-999,0.0,0.0,59,0.00,,,-99.99,FreeWX 2.04,2013-08-29 18:12:00,
2013-08-29 14:22:00,82.2,64.4,30.03,North,-999,0.0,0.0,55,0.00,,,-99.99,FreeWX 2.04,2013-08-29 18:22:00,
2013-08-29 14:32:00,81.7,56.3,30.03,North,-999,0.0,0.0,42,0.00,,,-99.99,FreeWX 2.04,2013-08-29 18:32:00,
2013-08-29 14:42:00,82.0,55.9,30.03,North,-999,0.0,0.0,41,0.00,,,-99.99,FreeWX 2.04,2013-08-29 18:42:00,
2013-08-29 14:52:00,80.6,52.0,30.03,North,-999,0.0,0.0,37,0.00,,,-99.99,FreeWX 2.04,2013-08-29 18:52:00,
2013-08-29 15:02:00,79.7,54.0,30.03,North,-999,0.0,0.0,41,0.00,,,-99.99,FreeWX 2.04,2013-08-29 19:02:00,
2013-08-29 15:12:00,81.5,55.6,30.03,North,-999,0.0,0.0,41,0.00,,,-99.99,FreeWX 2.04,2013-08-29 19:12:00,
2013-08-29 15:22:00,82.9,50.9,30.03,North,-999,0.0,0.0,33,0.00,,,-99.99,FreeWX 2.04,2013-08-29 19:22:00,
2013-08-29 15:32:00,83.5,49.6,30.03,North,-999,0.0,0.0,31,0.00,,,-99.99,FreeWX 2.04,2013-08-29 19:32:00,
2013-08-29 15:42:00,82.4,48.7,30.00,North,-999,0.0,0.0,31,0.00,,,-99.99,FreeWX 2.04,2013-08-29 19:42:00,
2013-08-29 15:52:00,82.0,52.3,30.00,North,-999,0.0,0.0,36,0.00,,,-99.99,FreeWX 2.04,2013-08-29 19:52:00,
2013-08-29 16:02:00,82.8,49.8,30.00,North,-999,0.0,0.0,32,0.00,,,-99.99,FreeWX 2.04,2013-08-29 20:02:00,
2013-08-29 16:12:00,83.1,50.2,30.00,North,-999,0.0,0.0,32,0.00,,,-99.99,FreeWX 2.04,2013-08-29 20:12:00,
2013-08-29 16:22:00,83.5,51.3,30.00,North,-999,0.0,0.0,33,0.00,,,-99.99,FreeWX 2.04,2013-08-29 20:22:00,
2013-08-29 16:32:00,81.9,48.2,30.00,North,-999,0.0,0.0,31,0.00,,,-99.99,FreeWX 2.04,2013-08-29 20:32:00,
2013-08-29 16:42:00,81.3,49.5,30.00,North,-999,0.0,0.0,33,0.00,,,-99.99,FreeWX 2.04,2013-08-29 20:42:00,
2013-08-29 16:52:00,80.8,50.5,30.00,North,-999,0.0,0.0,35,0.00,,,-99.99,FreeWX 2.04,2013-08-29 20:52:00,
2013-08-29 17:02:00,80.6,51.1,30.00,North,-999,0.0,0.0,36,0.00,,,-99.99,FreeWX 2.04,2013-08-29 21:02:00,
2013-08-29 17:12:00,80.4,51.8,30.00,North,-999,0.0,0.0,37,0.00,,,-99.99,FreeWX 2.04,2013-08-29 21:12:00,
2013-08-29 17:22:00,80.1,51.4,30.00,North,-999,0.0,0.0,37,0.00,,,-99.99,FreeWX 2.04,2013-08-29 21:22:00,
2013-08-29 17:32:00,79.5,53.1,30.00,North,-999,0.0,0.0,40,0.00,,,-99.99,FreeWX 2.04,2013-08-29 21:32:00,
2013-08-29 17:42:00,79.3,52.9,30.00,North,-999,0.0,0.0,40,0.00,,,-99.99,FreeWX 2.04,2013-08-29 21:42:00,
2013-08-29 17:52:00,79.0,53.2,30.00,North,-999,0.0,0.0,41,0.00,,,-99.99,FreeWX 2.04,2013-08-29 21:52:00,
2013-08-29 18:02:00,79.0,54.0,30.00,North,-999,0.0,0.0,42,0.00,,,-99.99,FreeWX 2.04,2013-08-29 22:02:00,
2013-08-29 18:12:00,78.6,55.4,30.00,North,-999,0.0,0.0,45,0.00,,,-99.99,FreeWX 2.04,2013-08-29 22:12:00,
2013-08-29 18:22:00,78.3,54.5,30.00,North,-999,0.0,0.0,44,0.00,,,-99.99,FreeWX 2.04,2013-08-29 22:22:00,
2013-08-29 18:32:00,77.9,54.9,30.00,North,-999,0.0,0.0,45,0.00,,,-99.99,FreeWX 2.04,2013-08-29 22:32:00,
2013-08-29 18:42:00,77.5,57.4,29.97,North,-999,0.0,0.0,50,0.00,,,-99.99,FreeWX 2.04,2013-08-29 22:42:00,
2013-08-29 18:52:00,77.2,59.2,29.97,North,-999,0.0,0.0,54,0.00,,,-99.99,FreeWX 2.04,2013-08-29 22:52:00,
2013-08-29 19:02:00,76.8,58.5,29.97,North,-999,0.0,0.0,53,0.00,,,-99.99,FreeWX 2.04,2013-08-29 23:02:00,
2013-08-29 19:12:00,76.6,58.3,29.97,North,-999,0.0,0.0,53,0.00,,,-99.99,FreeWX 2.04,2013-08-29 23:12:00,
2013-08-29 19:22:00,76.5,59.5,30.00,North,-999,0.0,0.0,56,0.00,,,-99.99,FreeWX 2.04,2013-08-29 23:22:00,
2013-08-29 19:32:00,76.1,60.8,30.00,North,-999,0.0,0.0,59,0.00,,,-99.99,FreeWX 2.04,2013-08-29 23:32:00,
2013-08-29 19:42:00,76.1,61.2,30.00,North,-999,0.0,0.0,60,0.00,,,-99.99,FreeWX 2.04,2013-08-29 23:42:00,
2013-08-29 19:52:00,75.6,61.2,30.00,North,-999,0.0,0.0,61,0.00,,,-99.99,FreeWX 2.04,2013-08-29 23:52:00,
2013-08-29 20:02:00,75.2,61.3,30.00,North,-999,0.0,0.0,62,0.00,,,-99.99,FreeWX 2.04,2013-08-30 00:02:00,
2013-08-29 20:12:00,74.7,61.7,30.00,North,-999,0.0,0.0,64,0.00,,,-99.99,FreeWX 2.04,2013-08-30 00:12:00,
2013-08-29 20:22:00,74.1,61.5,30.00,North,-999,0.0,0.0,65,0.00,,,-99.99,FreeWX 2.04,2013-08-30 00:22:00,
2013-08-29 20:32:00,73.9,61.0,30.00,North,-999,0.0,0.0,64,0.00,,,-99.99,FreeWX 2.04,2013-08-30 00:32:00,
2013-08-29 20:42:00,73.8,61.2,30.00,North,-999,0.0,0.0,65,0.00,,,-99.99,FreeWX 2.04,2013-08-30 00:42:00,
2013-08-29 20:52:00,73.4,61.0,30.00,North,-999,0.0,0.0,65,0.00,,,-99.99,FreeWX 2.04,2013-08-30 00:52:00,
2013-08-29 21:02:00,73.0,61.0,30.00,North,-999,0.0,0.0,66,0.00,,,-99.99,FreeWX 2.04,2013-08-30 01:02:00,
2013-08-29 21:12:00,72.9,60.4,30.00,North,-999,0.0,0.0,65,0.00,,,-99.99,FreeWX 2.04,2013-08-30 01:12:00,
2013-08-29 21:22:00,72.3,59.9,30.00,North,-999,0.0,0.0,65,0.00,,,-99.99,FreeWX 2.04,2013-08-30 01:22:00,
2013-08-29 21:32:00,72.3,60.3,30.00,North,-999,0.0,0.0,66,0.00,,,-99.99,FreeWX 2.04,2013-08-30 01:32:00,
2013-08-29 21:42:00,72.0,59.9,30.00,North,-999,0.0,0.0,66,0.00,,,-99.99,FreeWX 2.04,2013-08-30 01:42:00,
2013-08-29 21:52:00,72.0,59.9,30.03,North,-999,0.0,0.0,66,0.00,,,-99.99,FreeWX 2.04,2013-08-30 01:52:00,
2013-08-29 22:02:00,71.8,59.7,30.03,North,-999,0.0,0.0,66,0.00,,,-99.99,FreeWX 2.04,2013-08-30 02:02:00,
2013-08-29 22:12:00,71.6,59.5,30.00,North,-999,0.0,0.0,66,0.00,,,-99.99,FreeWX 2.04,2013-08-30 02:12:00,
2013-08-29 22:22:00,71.4,59.5,30.00,North,-999,0.0,0.0,66,0.00,,,-99.99,FreeWX 2.04,2013-08-30 02:22:00,
2013-08-29 22:32:00,71.1,59.2,30.00,North,-999,0.0,0.0,66,0.00,,,-99.99,FreeWX 2.04,2013-08-30 02:32:00,
2013-08-29 22:42:00,71.1,59.2,30.00,North,-999,0.0,0.0,66,0.00,,,-99.99,FreeWX 2.04,2013-08-30 02:42:00,
2013-08-29 22:52:00,70.5,58.6,30.00,North,-999,0.0,0.0,66,0.00,,,-99.99,FreeWX 2.04,2013-08-30 02:52:00,
2013-08-29 23:02:00,70.3,58.8,30.00,North,-999,0.0,0.0,67,0.00,,,-99.99,FreeWX 2.04,2013-08-30 03:02:00,
2013-08-29 23:12:00,70.3,58.8,30.00,North,-999,0.0,0.0,67,0.00,,,-99.99,FreeWX 2.04,2013-08-30 03:12:00,
2013-08-29 23:22:00,70.2,58.6,30.00,North,-999,0.0,0.0,67,0.00,,,-99.99,FreeWX 2.04,2013-08-30 03:22:00,
2013-08-29 23:32:00,70.2,59.2,30.00,North,-999,0.0,0.0,68,0.00,,,-99.99,FreeWX 2.04,2013-08-30 03:32:00,
2013-08-29 23:42:00,69.8,58.3,30.00,North,-999,0.0,0.0,67,0.00,,,-99.99,FreeWX 2.04,2013-08-30 03:42:00,
2013-08-29 23:52:00,69.6,58.6,30.00,North,-999,0.0,0.0,68,0.00,,,-99.99,FreeWX 2.04,2013-08-30 03:52:00,